Date String (YYYY-MM-DD hh:mm:ss) UTC,Instrument flags,absolute air pressure of the measurement (hPa),sample flow rate (lpm),inlet stack bypass flow (lpm),air temperature of the measurement (°C),ambient temperature measured by the external sensor (°C),aerosol sample conditioner tube jacket temperature (°C),OPC LED temperature (°C),internal box temperature (°C),relative humidity of the measurement (%),span deviation,mass concentration of particles derived from Lorenz-Mie calculation of OPC scattering (μg/m³),mass concentration of particles derived from Lorenz-Mie calculation of OPC scattering (μg/m³),mass concentration of particles derived from Lorenz-Mie calculation of OPC scattering (μg/m³)
DateTimeUTC,F1_M11,P_M11,Q1_M11,Q2_M11,T1_M11,T2_M11,T3_M11,T4_M11,T5_M11,U1_M11,ZSPAN_M11,X2_M11,X0_M11,X1_M11
2024-05-20 13:00:00,SystemResetWarning,0828.5,4.99,000.00,026.1,025.4,000.0,034.4,027.9,021.8,0000.0,0004.06,0012.33,0002.81
2024-05-20 13:01:00,SystemResetWarning,0828.5,5.01,000.00,026.1,025.4,000.0,034.4,027.9,022.1,0000.0,0004.05,0012.54,0002.81
2024-05-20 13:02:00,SystemResetWarning,0828.5,5.00,000.00,026.1,025.4,000.0,034.4,027.9,021.7,0000.0,0004.02,0012.17,0002.81
2024-05-20 13:03:00,SystemResetWarning,0828.4,5.00,000.00,026.1,025.4,000.0,034.4,027.9,021.4,0000.0,0003.98,0011.90,0002.82
2024-05-20 13:04:00,SystemResetWarning,0828.4,5.01,000.00,026.1,025.4,000.0,034.4,027.9,021.6,0000.0,0003.90,0011.95,0002.80
2024-05-20 13:05:00,SystemResetWarning,0828.4,4.99,000.00,026.1,024.9,000.0,034.4,027.6,022.4,0000.0,0003.89,0011.54,0002.79
2024-05-20 13:06:00,SystemResetWarning,0828.4,5.00,000.00,025.7,022.8,000.0,034.5,026.4,022.7,0000.0,0003.92,0011.71,0002.78
2024-05-20 13:07:00,SystemResetWarning,0828.3,5.02,000.00,025.2,021.7,000.0,034.4,025.7,023.4,0000.0,0003.89,0011.07,0002.79
2024-05-20 13:08:00,SystemResetWarning,0828.4,4.99,000.00,025.0,022.0,000.0,034.3,025.7,023.8,0000.0,0003.89,0011.04,0002.79
2024-05-20 13:09:00,SystemResetWarning,0828.4,5.00,000.00,024.9,022.4,000.0,034.1,026.0,023.9,0000.0,0003.94,0011.06,0002.80
2024-05-20 13:10:00,SystemResetWarning,0828.4,5.01,000.00,024.9,022.8,000.0,033.9,026.3,023.6,0000.0,0003.98,0012.33,0002.82
2024-05-20 13:11:00,SystemResetWarning,0828.4,5.00,000.00,024.9,023.1,000.0,033.8,026.4,023.4,0000.0,0003.93,0012.74,0002.82
2024-05-20 13:12:00,SystemResetWarning,0828.4,5.00,000.00,025.0,023.4,000.0,033.7,026.6,023.3,0000.0,0003.91,0012.80,0002.81
2024-05-20 13:13:00,SystemResetWarning,0828.4,5.00,000.00,025.0,023.6,000.0,033.7,026.6,023.1,0000.0,0003.91,0013.16,0002.83
2024-05-20 13:14:00,SystemResetWarning,0828.4,5.00,000.00,025.0,023.8,000.0,033.6,026.7,023.3,0000.0,0003.97,0013.96,0002.86
2024-05-20 13:15:00,SystemResetWarning,0828.4,5.00,000.00,025.0,023.9,000.0,033.6,026.7,022.8,0000.0,0004.02,0014.50,0002.90
2024-05-20 13:16:00,SystemResetWarning,0828.4,5.00,000.00,025.1,024.1,000.0,033.6,026.8,022.9,0000.0,0004.03,0014.50,0002.92
2024-05-20 13:17:00,SystemResetWarning,0828.4,5.00,000.00,025.1,024.2,000.0,033.6,026.9,022.8,0000.0,0003.98,0012.86,0002.93
2024-05-20 13:18:00,SystemResetWarning,0828.4,5.00,000.00,025.1,024.3,000.0,033.5,026.9,023.4,0000.0,0004.00,0013.06,0002.94
2024-05-20 13:19:00,SystemResetWarning,0828.4,5.00,000.00,025.1,024.3,000.0,033.5,026.9,023.3,0000.0,0003.99,0013.14,0002.95
2024-05-20 13:20:00,SystemResetWarning,0828.4,5.00,000.00,025.2,024.4,000.0,033.5,027.0,023.5,0000.0,0003.98,0013.82,0002.97
2024-05-20 13:21:00,SystemResetWarning,0828.4,5.00,000.00,025.2,024.5,000.0,033.5,027.0,023.3,0000.0,0003.92,0012.94,0002.97
2024-05-20 13:22:00,SystemResetWarning,0828.4,5.00,000.00,025.2,024.5,000.0,033.5,027.0,023.3,0000.0,0003.95,0012.51,0002.98
2024-05-20 13:23:00,SystemResetWarning,0828.4,5.01,000.00,025.2,024.6,000.0,033.5,027.1,023.5,0000.0,0003.97,0012.47,0003.01
2024-05-20 13:24:00,SystemResetWarning,0828.4,4.99,000.00,025.3,024.6,000.0,033.6,027.1,023.6,0000.0,0003.94,0012.09,0003.00
2024-05-20 13:25:00,SystemResetWarning,0828.4,4.99,000.00,025.3,024.6,000.0,033.6,027.1,023.5,0000.0,0003.91,0011.44,0002.97
2024-05-20 13:26:00,SystemResetWarning,0828.4,5.00,000.00,025.3,024.7,000.0,033.6,027.2,023.7,0000.0,0003.91,0010.83,0002.97
2024-05-20 13:27:00,SystemResetWarning,0828.4,5.01,000.00,025.3,024.7,000.0,033.6,027.2,023.7,0000.0,0003.91,0010.95,0002.97
2024-05-20 13:28:00,SystemResetWarning,0828.3,5.00,000.00,025.4,024.7,000.0,033.6,027.2,023.7,0000.0,0003.98,0012.07,0002.98
2024-05-20 13:29:00,SystemResetWarning,0828.3,4.99,000.00,025.4,024.7,000.0,033.6,027.2,023.9,0000.0,0003.98,0012.00,0002.99
2024-05-20 13:30:00,SystemResetWarning,0828.4,5.00,000.00,025.4,024.8,000.0,033.6,027.2,023.3,0000.0,0004.02,0011.93,0003.00
2024-05-20 13:31:00,SystemResetWarning,0828.3,5.01,000.00,025.4,024.8,000.0,033.6,027.2,023.4,0000.0,0004.06,0012.27,0003.01
2024-05-20 13:32:00,SystemResetWarning,0828.3,5.01,000.00,025.4,024.8,000.0,033.6,027.3,023.1,0000.0,0004.07,0012.37,0003.00
2024-05-20 13:33:00,SystemResetWarning,0828.3,5.00,000.00,025.4,024.8,000.0,033.7,027.3,023.0,0000.0,0004.06,0012.85,0003.00
2024-05-20 13:34:00,SystemResetWarning,0828.4,4.99,000.00,025.5,024.8,000.0,033.7,027.3,023.2,0000.0,0004.06,0013.01,0002.98
2024-05-20 13:35:00,SystemResetWarning,0828.4,5.02,000.00,025.5,024.8,000.0,033.7,027.3,023.0,0000.0,0004.10,0013.05,0003.00
2024-05-20 13:36:00,SystemResetWarning,0828.4,5.01,000.00,025.5,024.8,000.0,033.7,027.3,023.1,0000.0,0004.14,0013.55,0003.01
2024-05-20 13:37:00,SystemResetWarning,0828.4,4.99,000.00,025.5,024.8,000.0,033.7,027.3,023.5,0000.0,0004.12,0014.68,0003.02
2024-05-20 13:38:00,SystemResetWarning,0828.4,4.99,000.00,025.5,024.9,000.0,033.7,027.3,023.3,0000.0,0004.14,0014.73,0003.03
2024-05-20 13:39:00,SystemResetWarning,0828.4,5.01,000.00,025.5,024.9,000.0,033.7,027.4,023.0,0000.0,0004.12,0013.91,0003.02
2024-05-20 13:40:00,SystemResetWarning,0828.4,5.01,000.00,025.5,024.9,000.0,033.7,027.4,022.9,0000.0,0004.11,0015.16,0003.01
2024-05-20 13:41:00,SystemResetWarning,0828.3,5.01,000.00,025.5,024.9,000.0,033.8,027.4,023.3,0000.0,0004.12,0015.93,0003.01
2024-05-20 13:42:00,SystemResetWarning,0828.3,5.00,000.00,025.6,024.9,000.0,033.8,027.4,023.4,0000.0,0004.10,0016.13,0003.01
2024-05-20 13:43:00,SystemResetWarning,0828.4,5.00,000.00,025.6,024.9,000.0,033.8,027.4,023.3,0000.0,0004.09,0016.06,0003.01
2024-05-20 13:44:00,SystemResetWarning,0828.4,4.99,000.00,025.6,024.9,000.0,033.8,027.4,023.3,0000.0,0004.08,0016.60,0003.01
2024-05-20 13:45:00,SystemResetWarning,0828.3,5.00,000.00,025.6,024.9,000.0,033.8,027.4,023.5,0000.0,0004.12,0016.81,0003.00
2024-05-20 13:46:00,SystemResetWarning,0828.3,5.00,000.00,025.6,024.9,000.0,033.8,027.4,023.6,0000.0,0004.10,0016.94,0002.99
2024-05-20 13:47:00,SystemResetWarning,0828.3,5.01,000.00,025.6,024.9,000.0,033.8,027.4,023.8,0000.0,0004.08,0016.70,0002.99
2024-05-20 13:48:00,SystemResetWarning,0828.3,5.00,000.00,025.6,024.9,000.0,033.8,027.4,023.2,0000.0,0004.11,0016.55,0002.98
2024-05-20 13:49:00,SystemResetWarning,0828.3,4.99,000.00,025.6,024.9,000.0,033.9,027.4,023.7,0000.0,0004.15,0016.59,0002.98
2024-05-20 13:50:00,SystemResetWarning,0828.3,5.00,000.00,025.6,024.9,000.0,033.9,027.4,023.6,0000.0,0004.12,0016.33,0002.98
2024-05-20 13:51:00,SystemResetWarning,0828.3,5.00,000.00,025.6,024.9,000.0,033.9,027.4,023.6,0000.0,0004.13,0014.94,0002.99
2024-05-20 13:52:00,SystemResetWarning,0828.3,5.01,000.00,025.6,024.9,000.0,033.9,027.4,023.6,0000.0,0004.09,0014.23,0003.00
2024-05-20 13:53:00,SystemResetWarning,0828.3,5.00,000.00,025.6,024.9,000.0,033.9,027.4,023.3,0000.0,0004.07,0013.53,0002.98
2024-05-20 13:54:00,SystemResetWarning,0828.3,4.99,000.00,025.6,024.9,000.0,033.9,027.4,023.5,0000.0,0004.11,0013.57,0002.98
2024-05-20 13:55:00,SystemResetWarning,0828.3,4.99,000.00,025.6,024.9,000.0,033.9,027.4,023.7,0000.0,0004.16,0013.18,0002.98
2024-05-20 13:56:00,SystemResetWarning,0828.3,5.01,000.00,025.6,024.9,000.0,033.9,027.5,023.5,0000.0,0004.15,0013.48,0003.00
2024-05-20 13:57:00,SystemResetWarning,0828.3,5.00,000.00,025.7,024.9,000.0,033.9,027.5,023.3,0000.0,0004.14,0013.34,0003.00
2024-05-20 13:58:00,SystemResetWarning,0828.2,5.00,000.00,025.7,025.0,000.0,033.9,027.5,023.2,0000.0,0004.14,0013.39,0002.99
2024-05-20 13:59:00,SystemResetWarning,0828.2,5.00,000.00,025.7,025.0,000.0,033.9,027.5,022.9,0000.0,0004.15,0013.38,0003.00
